When you browse on this site, cookies collect data to enhance your experience and personalize the content and advertising you see.
Visit our Privacy Policy to learn more. By continuing to use the site, you agree to this use of cookies and data.
  • In Hungary
  • List of Countries
  • For 7 days
  • Water Temperature
  • Weather Map
  • News
  • Weather Widgets
  • user-avatar
    Login

    Hourly Weather Smencevo

    Today, 23 January, Thursday

    Time Temperature Precipitation Wind Pressure Humidity
    00:00 -7°C° 0.2 mm 5 mps 734 mmHg 83%
    01:00 -8°C° 0.2 mm 6 mps 735 mmHg 81%
    02:00 -7°C° 0 mm 5 mps 736 mmHg 80%
    03:00 -8°C° 0.1 mm 5 mps 736 mmHg 78%
    04:00 -8°C° 0.1 mm 5 mps 736 mmHg 76%
    05:00 -10°C° 0.1 mm 5 mps 737 mmHg 74%
    06:00 -10°C° 0 mm 5 mps 737 mmHg 73%
    07:00 -9°C° 0 mm 4 mps 738 mmHg 72%
    08:00 -10°C° 0 mm 4 mps 738 mmHg 71%
    09:00 -10°C° 0 mm 5 mps 738 mmHg 70%
    10:00 -10°C° 0 mm 5 mps 739 mmHg 69%
    11:00 -10°C° 0 mm 5 mps 739 mmHg 68%
    12:00 -10°C° 0 mm 5 mps 740 mmHg 66%
    13:00 -8°C° 0 mm 5 mps 740 mmHg 64%
    14:00 -8°C° 0 mm 5 mps 740 mmHg 63%
    15:00 -10°C° 0 mm 5 mps 741 mmHg 63%
    16:00 -9°C° 0 mm 4 mps 741 mmHg 64%
    17:00 -9°C° 0 mm 4 mps 741 mmHg 64%
    18:00 -9°C° 0 mm 4 mps 741 mmHg 67%
    19:00 -8°C° 0 mm 3 mps 741 mmHg 70%
    20:00 -8°C° 0 mm 3 mps 742 mmHg 73%
    21:00 -8°C° 0 mm 3 mps 741 mmHg 76%
    22:00 -8°C° 0 mm 3 mps 741 mmHg 79%
    23:00 -7°C° 0 mm 2 mps 741 mmHg 82%

    Tomorrow, 24 January, Friday

    Time Temperature Precipitation Wind Pressure Humidity
    00:00 -7°C° 0 mm 3 mps 741 mmHg 82%
    01:00 -7°C° 0 mm 3 mps 740 mmHg 82%
    02:00 -7°C° 0 mm 3 mps 740 mmHg 81%
    03:00 -6°C° 0.1 mm 3 mps 739 mmHg 85%
    04:00 -7°C° 0.1 mm 4 mps 738 mmHg 89%
    05:00 -6°C° 0.1 mm 5 mps 737 mmHg 93%
    06:00 -6°C° 0.4 mm 5 mps 736 mmHg 93%
    07:00 -6°C° 0.4 mm 5 mps 735 mmHg 94%
    08:00 -5°C° 0.4 mm 6 mps 734 mmHg 94%
    09:00 -5°C° 0.2 mm 5 mps 734 mmHg 92%
    10:00 -4°C° 0.2 mm 5 mps 733 mmHg 89%
    11:00 -2°C° 0.2 mm 5 mps 733 mmHg 87%
    12:00 -2°C° 0 mm 5 mps 732 mmHg 87%
    13:00 -1°C° 0 mm 4 mps 732 mmHg 87%
    14:00 -1°C° 0 mm 4 mps 731 mmHg 87%
    15:00 -1°C° 0.4 mm 4 mps 731 mmHg 90%
    16:00 -1°C° 0.4 mm 4 mps 730 mmHg 93%
    17:00 -1°C° 0.4 mm 4 mps 730 mmHg 97%
    18:00 -2°C° 0.1 mm 4 mps 730 mmHg 92%
    19:00 -2°C° 0.1 mm 4 mps 730 mmHg 87%
    20:00 -2°C° 0.1 mm 5 mps 731 mmHg 82%
    21:00 -4°C° 0 mm 5 mps 731 mmHg 84%
    22:00 -4°C° 0 mm 5 mps 731 mmHg 86%
    23:00 -4°C° 0 mm 4 mps 731 mmHg 88%

    Day after tomorrow, 25 January, Saturday

    Time Temperature Precipitation Wind Pressure Humidity
    00:00 -4°C° 0 mm 4 mps 731 mmHg 88%
    01:00 -4°C° 0 mm 4 mps 731 mmHg 87%
    02:00 -5°C° 0 mm 5 mps 731 mmHg 87%
    03:00 -5°C° 0 mm 5 mps 730 mmHg 86%
    04:00 -4°C° 0 mm 5 mps 730 mmHg 85%
    05:00 -4°C° 0 mm 5 mps 730 mmHg 84%
    06:00 -4°C° 0 mm 5 mps 729 mmHg 87%
    07:00 -4°C° 0 mm 5 mps 729 mmHg 89%
    08:00 -4°C° 0 mm 5 mps 729 mmHg 92%
    09:00 -4°C° 0.2 mm 6 mps 728 mmHg 85%
    10:00 -4°C° 0.2 mm 6 mps 728 mmHg 79%
    11:00 -3°C° 0.2 mm 7 mps 728 mmHg 73%
    12:00 -4°C° 0.1 mm 6 mps 728 mmHg 73%
    13:00 -4°C° 0.1 mm 6 mps 728 mmHg 72%
    14:00 -4°C° 0.1 mm 6 mps 728 mmHg 72%
    15:00 -5°C° 0 mm 6 mps 729 mmHg 75%
    16:00 -5°C° 0 mm 5 mps 729 mmHg 79%
    17:00 -6°C° 0 mm 5 mps 729 mmHg 82%
    18:00 -6°C° 0 mm 5 mps 730 mmHg 83%
    19:00 -6°C° 0 mm 5 mps 731 mmHg 84%
    20:00 -6°C° 0 mm 5 mps 731 mmHg 84%
    21:00 -6°C° 0 mm 5 mps 732 mmHg 86%
    22:00 -6°C° 0 mm 5 mps 732 mmHg 87%
    23:00 -6°C° 0 mm 5 mps 733 mmHg 88%

    26 January, Sunday

    Time Temperature Precipitation Wind Pressure Humidity
    00:00 -6°C° 0.1 mm 5 mps 734 mmHg 87%
    01:00 -7°C° 0.1 mm 5 mps 735 mmHg 86%
    02:00 -7°C° 0.1 mm 5 mps 736 mmHg 85%
    03:00 -7°C° 0 mm 5 mps 737 mmHg 85%
    04:00 -7°C° 0 mm 5 mps 738 mmHg 85%
    05:00 -7°C° 0 mm 5 mps 738 mmHg 85%
    06:00 -7°C° 0 mm 5 mps 739 mmHg 84%
    07:00 -7°C° 0 mm 4 mps 740 mmHg 82%
    08:00 -7°C° 0 mm 4 mps 741 mmHg 81%
    09:00 -7°C° 0 mm 4 mps 742 mmHg 78%
    10:00 -6°C° 0 mm 5 mps 742 mmHg 75%
    11:00 -6°C° 0 mm 5 mps 743 mmHg 72%
    12:00 -6°C° 0 mm 5 mps 744 mmHg 71%
    13:00 -5°C° 0 mm 4 mps 744 mmHg 70%
    14:00 -5°C° 0 mm 4 mps 744 mmHg 69%
    15:00 -6°C° 0 mm 3 mps 745 mmHg 75%
    16:00 -7°C° 0 mm 3 mps 745 mmHg 81%
    17:00 -6°C° 0 mm 2 mps 745 mmHg 87%
    18:00 -6°C° 0 mm 2 mps 745 mmHg 87%
    19:00 -6°C° 0 mm 2 mps 746 mmHg 88%
    20:00 -6°C° 0 mm 2 mps 746 mmHg 89%
    21:00 -6°C° 0 mm 2 mps 746 mmHg 90%
    22:00 -4°C° 0 mm 1 mps 746 mmHg 92%
    23:00 -4°C° 0 mm 1 mps 746 mmHg 93%

    27 January, Monday

    Time Temperature Precipitation Wind Pressure Humidity
    00:00 -4°C° 0 mm 1 mps 745 mmHg 93%
    01:00 -4°C° 0 mm 0 mps 745 mmHg 94%
    02:00 -4°C° 0 mm 0 mps 745 mmHg 95%
    03:00 -3°C° 0.3 mm 1 mps 745 mmHg 95%
    04:00 -5°C° 0.3 mm 2 mps 745 mmHg 95%
    05:00 -5°C° 0.3 mm 2 mps 744 mmHg 95%
    06:00 -6°C° 0.5 mm 3 mps 744 mmHg 95%
    07:00 -6°C° 0.5 mm 3 mps 744 mmHg 95%
    08:00 -6°C° 0.5 mm 3 mps 744 mmHg 94%
    09:00 -6°C° 0.6 mm 3 mps 744 mmHg 95%
    10:00 -5°C° 0.6 mm 3 mps 744 mmHg 95%
    11:00 -5°C° 0.6 mm 3 mps 744 mmHg 95%
    12:00 -4°C° 0.5 mm 3 mps 743 mmHg 96%
    13:00 -2°C° 0.5 mm 2 mps 743 mmHg 96%
    14:00 -2°C° 0.5 mm 2 mps 742 mmHg 97%
    15:00 -1°C° 0.2 mm 2 mps 742 mmHg 97%
    16:00 +1°C° 0.2 mm 2 mps 742 mmHg 98%
    17:00 0°C° 0.2 mm 3 mps 742 mmHg 98%
    18:00 0°C° 0.2 mm 3 mps 742 mmHg 98%
    19:00 +1°C° 0.2 mm 3 mps 741 mmHg 98%
    20:00 +1°C° 0.2 mm 3 mps 741 mmHg 97%
    21:00 0°C° 0.1 mm 3 mps 741 mmHg 97%
    22:00 0°C° 0.1 mm 3 mps 741 mmHg 97%
    23:00 0°C° 0.1 mm 3 mps 741 mmHg 97%

    28 January, Tuesday

    Time Temperature Precipitation Wind Pressure Humidity
    00:00 0°C° 0.1 mm 3 mps 741 mmHg 97%
    01:00 0°C° 0.1 mm 3 mps 741 mmHg 97%
    02:00 0°C° 0.1 mm 3 mps 740 mmHg 97%
    03:00 -1°C° 0.1 mm 3 mps 740 mmHg 97%
    04:00 -1°C° 0.1 mm 3 mps 740 mmHg 97%
    05:00 -1°C° 0.1 mm 2 mps 740 mmHg 97%
    06:00 -2°C° 0.1 mm 2 mps 739 mmHg 97%
    07:00 -2°C° 0.1 mm 2 mps 739 mmHg 97%
    08:00 -2°C° 0.1 mm 2 mps 739 mmHg 97%
    09:00 -2°C° 0 mm 2 mps 739 mmHg 96%
    10:00 -2°C° 0 mm 2 mps 738 mmHg 95%
    11:00 -1°C° 0 mm 3 mps 738 mmHg 94%
    12:00 -1°C° 0.1 mm 3 mps 738 mmHg 95%
    13:00 -1°C° 0.1 mm 3 mps 737 mmHg 95%
    14:00 -1°C° 0.1 mm 3 mps 737 mmHg 96%
    15:00 -1°C° 0.2 mm 3 mps 737 mmHg 96%
    16:00 -1°C° 0.2 mm 3 mps 737 mmHg 97%
    17:00 -1°C° 0.2 mm 3 mps 736 mmHg 97%
    18:00 -1°C° 0.1 mm 3 mps 736 mmHg 97%
    19:00 -1°C° 0.1 mm 3 mps 735 mmHg 97%
    20:00 -1°C° 0.1 mm 3 mps 735 mmHg 96%
    21:00 -1°C° 0 mm 3 mps 735 mmHg 96%
    22:00 -2°C° 0 mm 4 mps 734 mmHg 96%
    23:00 -1°C° 0 mm 4 mps 734 mmHg 97%
    Show more